Regional Weather Roundup
Issued by NWS

Home | Current Version | Previous Version | Text Only | Print | Product List | Glossary Off
Versions: 1 2 3 4 5 6 7 8 9 10 11 12 13 14 15 16 17 18 19 20 21 22 23 24 25 26 27 28 29 30 31 32 33 34 35 36 37 38 39 40 41 42 43 44 45 46 47 48 49 50

000
ASUS43 KLMK 231602
RWRKY
KENTUCKY REGIONAL WEATHER ROUNDUP
NATIONAL WEATHER SERVICE LOUISVILLE KY
1200 PM EDT SAT JUL 23 2016

NOTE "FAIR" INDICATES FEW OR NO CLOUDS BELOW 12,000 FEET
WITH NO SIGNIFICANT WEATHER AND/OR OBSTRUCTIONS TO VISIBILITY.

KYZ001>023-026-027-061>063-070>075-231700-
WESTERN AND SOUTH CENTRAL KENTUCKY

CITY           SKY/WX    TMP DP  RH WIND       PRES   REMARKS
PADUCAH        SUNNY     85  73  67 CALM      29.99F HX  91
HENDERSON      SUNNY     84  75  74 SE6       29.98F HX  92
OWENSBORO      MOSUNNY   87  76  69 S9        30.01F HX  97
HOPKINSVILLE   MOSUNNY   86  73  66 VRB3      30.00F HX  93
BOWLING GREEN  SUNNY     86  75  69 CALM      30.01F HX  95
GLASGOW        NOT AVBL
$$

KYZ024-025-028>034-038-045-046-053-231700-
NORTH CENTRAL KENTUCKY

CITY           SKY/WX    TMP DP  RH WIND       PRES   REMARKS
LOUISVILLE/SDF MOSUNNY   88  72  58 SE7       30.01F HX  94
LOUISVILLE/LOU SUNNY     87  73  62 VRB3      30.03S HX  94
FORT KNOX      MOSUNNY   85  74  69 S5        30.02S HX  93
$$

KYZ035>037-039>044-047>052-055>060-089>105-231700-
NORTHEAST KENTUCKY

CITY           SKY/WX    TMP DP  RH WIND       PRES   REMARKS
LEXINGTON      PTSUNNY   86  72  62 CALM      30.05S HX  92
COVINGTON      MOSUNNY   86  73  65 VRB5      30.03F HX  93
FRANKFORT      MOSUNNY   87  72  60 VRB3      30.03F HX  93
$$

KYZ054-064>069-076>088-106>120-231700-
SOUTHEAST KENTUCKY

CITY           SKY/WX    TMP DP  RH WIND       PRES   REMARKS
JACKSON        SUNNY     84  70  62 CALM      30.07F
LONDON         PTSUNNY   85  70  60 S6        30.05F
SOMERSET       SUNNY     84  72  65 E3        30.06S
MIDDLESBORO    MOSUNNY   88  73  61 S3        30.06F HX  95
MONTICELLO     MOSUNNY  N/A N/A N/A VRB5      30.06F
$$




USA.gov is the U.S. government's official web portal to all federal, state and local government web resources and services.